[[{"header":{"parameterUnit":"m.s-1","parameterCategory":1,"la1":30.2991,"la2":30.254,"lo1":-89.0895,"lo2":-89.0444,"dy":0.0017,"dx":0.0017,"nx":28,"ny":28,"refTime":"2024-03-25T09:00:00:Z","depth":0,"parameterNumber":2,"parameterNumberName":"U-component_of_WINDS"},"data":[0,0,0,0,0,0,0,0,0,0,0,0,0,0,0,0,0,0,0,0,0,0,0,0,0,0,0,0,0,0,0,0,0,0,0,0,0,0,0,0,0,0,0,0,0,0,0,0,0,0,0,0,0,0,0,0,0,0,-7.6269,-7.6271,0,-7.6438,-7.644,-7.6442,-7.647,-7.6468,-7.6467,-7.6465,-7.6637,-7.6642,-7.6648,0,0,0,0,0,0,0,0,0,0,0,0,0,-7.597,-7.5975,-7.6269,-7.6271,-7.6273,-7.6438,-7.644,-7.6442,-7.647,-7.6468,-7.6466,-7.6465,-7.6635,-7.6642,-7.6649,0,0,0,0,0,0,0,0,0,0,0,0,0,-7.6115,-7.5977,-7.6268,-7.6307,-7.6312,-7.6437,-7.644,-7.6443,-7.647,-7.6468,-7.6466,-7.6464,-7.6632,-7.6641,-7.665,-7.6748,0,0,-7.6677,-7.6681,0,0,0,0,0,0,0,0,-7.6107,-7.6126,-7.6299,-7.6304,-7.631,-7.6431,-7.6397,-7.6545,-7.6471,-7.641,-7.6465,-7.6463,-7.657,-7.6584,-7.662,-7.6756,-7.6763,-7.6678,-7.6683,-7.6687,-7.6689,0,0,0,0,0,0,0,-7.6097,-7.6119,-7.6336,-7.6301,-7.6308,-7.6315,-7.6334,-7.6425,-7.65,-7.6415,-7.6418,-7.6437,-7.6572,-7.6611,-7.6624,-7.6766,-7.6677,-7.6685,-7.6691,-7.6694,-7.6992,-7.6994,0,0,0,0,0,0,-7.608,-7.611,-7.633,-7.6341,-7.6201,-7.6323,-7.6343,-7.6394,-7.6499,-7.6513,-7.6439,-7.6438,-7.6597,-7.6614,-7.663,-7.6751,-7.6687,-7.6695,-7.67,-7.6989,-7.6992,-7.6995,0,0,0,0,0,0,-7.6073,-7.6099,-7.6324,-7.6226,-7.6255,-7.633,-7.6387,-7.6399,-7.6438,-7.6517,-7.653,-7.6465,-7.6596,-7.6618,-7.6719,-7.6758,-7.6699,-7.6707,-7.6986,-7.699,-7.6994,-7.6995,0,0,0,0,0,0,-7.6065,-7.6097,-7.6135,-7.6227,-7.6261,-7.6409,-7.639,-7.6404,-7.6453,-7.6453,-7.6545,-7.6558,-7.6596,-7.6705,-7.6728,-7.6769,-7.6714,-7.6983,-7.6988,-7.6992,-7.6991,-7.6998,-7.7004,0,0,0,0,0,-7.6054,-7.6128,-7.6136,-7.6163,-7.631,-7.6411,-7.643,-7.6473,-7.6456,-7.6495,-7.6546,-7.6555,-7.6751,-7.6715,-7.6741,-7.6785,-7.698,-7.6986,-7.6992,-7.6989,-7.6997,-7.7004,0,0,0,0,0,0,-7.6037,-7.614,-7.6151,-7.6257,-7.6325,-7.6416,-7.6465,-7.648,-7.6554,-7.6551,-7.6601,-7.6621,-7.6719,-7.6763,-7.6722,-7.6886,-7.6864,-7.6875,-7.6853,-7.6862,-7.6868,-7.6853,-7.6721,0,0,0,0,0,-7.6046,-7.612,-7.6207,-7.6292,-7.6326,-7.639,-7.6436,-7.6463,-7.6535,-7.6564,-7.6622,-7.6692,-7.6769,-7.6818,-7.6894,-7.7,-7.7019,-7.7043,-7.7049,-7.7054,-7.7062,-7.7121,-7.7132,-7.7014,-7.7014,-7.7014,0,0,-7.6064,-7.613,-7.6173,-7.629,-7.6346,-7.6421,-7.6414,-7.6493,-7.6549,-7.6576,-7.6674,-7.672,-7.6801,-7.6905,-7.6953,-7.6944,-7.71,-7.7061,-7.7065,-7.707,-7.7128,-7.7139,-7.7148,-7.7018,-7.7017,-7.7017,0,0,-7.6135,-7.6193,-7.627,-7.6327,-7.6412,-7.6455,-7.6474,-7.6563,-7.6594,-7.6695,-7.6716,-7.6784,-7.6916,-7.6973,-7.7018,-7.7115,-7.7125,-7.7138,-7.7169,-7.7226,-7.7235,-7.7243,-7.7276,-7.7287,-7.7147,-7.7147,-7.7147,0,-7.6146,-7.626,-7.6308,-7.6387,-7.6437,-7.6467,-7.6545,-7.6598,-7.6703,-7.6737,-7.6726,-7.6893,-7.695,-7.7067,-7.709,-7.7128,-7.715,-7.7126,-7.723,-7.7239,-7.7247,-7.7279,-7.7291,-7.7147,-7.7147,-7.7147,-7.7147,0,-7.627,-7.6349,-7.6401,-7.6503,-7.656,-7.6638,-7.6697,-7.6749,-7.6773,-7.6817,-7.6918,-7.6988,-7.7078,-7.7109,-7.7132,-7.723,-7.7221,-7.722,-7.7198,-7.7258,-7.7289,-7.7301,-7.7148,-7.7148,-7.7148,-7.7148,0,0,-7.633,-7.6459,-7.6477,-7.6524,-7.6622,-7.6684,-7.6765,-7.6853,-7.6896,-7.697,-7.7037,-7.715,-7.7149,-7.7202,-7.7233,-7.7283,-7.7353,-7.7275,-7.7278,-7.7285,-7.7463,-7.7461,-7.7474,-7.7362,-7.7365,-7.7367,-7.7455,0,-7.6411,-7.6554,-7.66,-7.672,-7.6794,-7.6824,-7.6895,-7.6962,-7.7006,-7.7075,-7.7124,-7.7202,-7.7197,-7.7229,-7.728,-7.7333,-7.7388,-7.7328,-7.7424,-7.7427,-7.7399,-7.749,-7.7488,-7.7568,-7.7467,-7.747,-7.7471,0,-7.6523,-7.6598,-7.6725,-7.6815,-7.6847,-7.6909,-7.6995,-7.7061,-7.7139,-7.7167,-7.7227,-7.7255,-7.734,-7.7316,-7.7434,-7.7392,-7.7435,-7.7467,-7.7471,-7.7479,-7.745,-7.7497,-7.7594,-7.7605,-7.7491,-7.7489,-7.7488,0,-7.6551,-7.6685,-7.6778,-7.6818,-7.6925,-7.6968,-7.7014,-7.709,-7.7141,-7.7217,-7.725,-7.7335,-7.738,-7.7445,-7.7494,-7.7473,-7.7607,-7.7588,-7.7632,-7.763,-7.7655,-7.7652,-7.7757,-7.7688,-7.7688,-7.7688,-7.7688,0,-7.6634,-7.671,-7.6793,-7.6849,-7.6936,-7.6989,-7.7073,-7.7121,-7.7189,-7.7256,-7.7289,-7.7351,-7.7414,-7.7485,-7.7524,-7.7615,-7.7636,-7.7661,-7.767,-7.7656,-7.7652,-7.7682,-7.7676,-7.7691,-7.769,-7.769,-7.7689,0,-7.6679,-7.6737,-7.6841,-7.6935,-7.696,-7.702,-7.71,-7.7157,-7.7204,-7.7288,-7.7311,-7.7384,-7.7469,-7.7526,-7.7634,-7.7661,-7.7759,-7.7768,-7.7732,-7.7736,-7.7776,-7.777,-7.7901,-7.792,-7.784,-7.7841,-7.7842,0,-7.6726,-7.6785,-7.6886,-7.6934,-7.6981,-7.7057,-7.711,-7.7165,-7.7219,-7.7313,-7.7358,-7.7446,-7.7518,-7.7652,-7.7715,-7.7798,-7.7808,-7.7849,-7.7821,-7.7805,-7.7806,-7.78,-7.7806,-7.7851,-7.7852,-7.7852,-7.7853,0,-7.6803,-7.683,-7.6904,-7.699,-7.7052,-7.7122,-7.7192,-7.7229,-7.7297,-7.7355,-7.7443,-7.7499,-7.7611,-7.7697,-7.7787,-7.7835,-7.7855,-7.7862,-7.7876,-7.7861,-7.7836,-7.7848,-7.7741,-7.7858,-7.7857,-7.7857,-7.7856,-7.7856,-7.6849,-7.6903,-7.6983,-7.7065,-7.7124,-7.7189,-7.7247,-7.7302,-7.7376,-7.7471,-7.7501,-7.7591,-7.7669,-7.7792,-7.7842,-7.7914,-7.791,-7.7931,-7.7936,-7.7939,-7.7938,-7.7828,-7.7931,-7.7931,-7.7931,-7.7931,-7.7931,0,-7.6926,-7.6979,-7.7055,-7.7152,-7.7217,-7.7233,-7.7312,-7.7364,-7.7444,-7.7516,-7.7587,-7.7688,-7.7772,-7.7843,-7.793,-7.7974,-7.7985,-7.7994,-7.799,-7.8,-7.7938,-7.7915,-7.7983,-7.7983,-7.7983,-7.7983,-7.7983,-7.7983,-7.6973,-7.7065,-7.7101,-7.7223,-7.7277,-7.7366,-7.7409,-7.747,-7.7527,-7.7638,-7.7709,-7.7755,-7.7826,-7.7919,-7.7997,-7.8016,-7.8045,-7.8052,-7.8072,-7.8011,-7.8005,-7.7999,-7.7978,-7.8058,-7.8059,-7.8129,-7.813,-7.813]},{"header":{"parameterUnit":"m.s-1","parameterCategory":1,"la1":30.2991,"la2":30.254,"lo1":-89.0895,"lo2":-89.0444,"dy":0.0017,"dx":0.0017,"nx":28,"ny":28,"refTime":"2024-03-25T09:00:00:Z","depth":0,"parameterNumber":3,"parameterNumberName":"V-component_of_WINDS"},"data":[0,0,0,0,0,0,0,0,0,0,0,0,0,0,0,0,0,0,0,0,0,0,0,0,0,0,0,0,0,0,0,0,0,0,0,0,0,0,0,0,0,0,0,0,0,0,0,0,0,0,0,0,0,0,0,0,0,0,6.8394,6.8395,0,6.844,6.844,6.8441,6.8405,6.8403,6.8402,6.84,6.8443,6.8445,6.8448,0,0,0,0,0,0,0,0,0,0,0,0,0,6.8275,6.8278,6.8394,6.8395,6.8395,6.844,6.844,6.8441,6.8405,6.8403,6.8401,6.8399,6.8442,6.8445,6.8448,0,0,0,0,0,0,0,0,0,0,0,0,0,6.8324,6.8278,6.8394,6.8383,6.8382,6.8439,6.844,6.8441,6.8405,6.8403,6.8401,6.8398,6.8441,6.8445,6.8448,6.8518,0,0,6.846,6.8462,0,0,0,0,0,0,0,0,6.8322,6.8329,6.8384,6.8384,6.8383,6.8414,6.8414,6.8467,6.8406,6.8396,6.84,6.8397,6.8435,6.8439,6.8453,6.852,6.8522,6.8461,6.8463,6.8465,6.8466,0,0,0,0,0,0,0,6.8318,6.8327,6.8412,6.8385,6.8384,6.8375,6.838,6.8424,6.8428,6.8397,6.8395,6.8401,6.8434,6.8449,6.8453,6.8523,6.846,6.8464,6.8466,6.8468,6.8654,6.8656,0,0,0,0,0,0,6.8316,6.8324,6.8411,6.8413,6.8346,6.8379,6.8384,6.8406,6.8427,6.8428,6.8403,6.8399,6.8443,6.8449,6.8455,6.854,6.8465,6.8468,6.847,6.8651,6.8654,6.8657,0,0,0,0,0,0,6.8314,6.8324,6.8409,6.8368,6.8378,6.8384,6.8409,6.8409,6.8423,6.8431,6.8432,6.8417,6.8442,6.8449,6.8504,6.8541,6.847,6.8473,6.8648,6.8652,6.8656,6.8711,0,0,0,0,0,0,6.8311,6.8324,6.835,6.8369,6.8381,6.8458,6.8411,6.8411,6.843,6.8426,6.8445,6.8446,6.8441,6.8498,6.8508,6.8545,6.8476,6.8644,6.865,6.8654,6.8705,6.8716,6.8725,0,0,0,0,0,6.8306,6.8362,6.8352,6.8362,6.8414,6.846,6.8466,6.846,6.8434,6.8461,6.8466,6.8445,6.8536,6.8504,6.8514,6.8554,6.8642,6.8648,6.8654,6.8701,6.8714,6.8725,0,0,0,0,0,0,6.8345,6.8364,6.8353,6.8416,6.8437,6.8454,6.8487,6.8473,6.8501,6.8495,6.8485,6.849,6.8548,6.8556,6.8521,6.8624,6.8585,6.8593,6.8617,6.8629,6.8639,6.8636,6.848,0,0,0,0,0,6.8361,6.8398,6.8412,6.8466,6.8478,6.8481,6.8501,6.8495,6.8515,6.8523,6.8533,6.8553,6.8586,6.8608,6.8638,6.8706,6.8711,6.8739,6.8748,6.8756,6.8764,6.8804,6.8817,6.8676,6.8676,6.8676,0,0,6.8394,6.8409,6.8432,6.8475,6.849,6.8529,6.8488,6.8529,6.8558,6.8529,6.8582,6.859,6.8612,6.8675,6.8703,6.8683,6.8804,6.8764,6.877,6.8773,6.8811,6.8825,6.8836,6.868,6.868,6.8679,0,0,6.8474,6.8489,6.8538,6.8555,6.858,6.8582,6.8594,6.8614,6.8619,6.8673,6.8653,6.8687,6.8743,6.8761,6.8777,6.8869,6.8851,6.8879,6.893,6.8969,6.898,6.899,6.9025,6.9037,6.8886,6.8886,6.8886,0,6.8512,6.857,6.8564,6.8609,6.8629,6.8607,6.8657,6.8674,6.8707,6.8721,6.8699,6.8773,6.8785,6.8853,6.8877,6.8889,6.8904,6.8876,6.8979,6.8989,6.8998,6.9031,6.9044,6.8889,6.8889,6.8889,6.8888,0,6.8616,6.8657,6.8693,6.8729,6.8753,6.88,6.8802,6.8827,6.882,6.8825,6.8882,6.8897,6.8932,6.8947,6.8939,6.9016,6.9003,6.898,6.894,6.9015,6.9046,6.9059,6.8894,6.8893,6.8892,6.8891,0,0,6.872,6.8756,6.8769,6.8787,6.8815,6.8846,6.8892,6.8929,6.8952,6.8976,6.9016,6.9066,6.9047,6.9065,6.9059,6.9093,6.9169,6.9066,6.9067,6.9087,6.9257,6.9276,6.9291,6.9158,6.916,6.9162,6.9256,0,6.8804,6.8887,6.8886,6.8963,6.9002,6.8984,6.9025,6.9046,6.9053,6.9087,6.9093,6.9131,6.91,6.9112,6.9145,6.9153,6.9203,6.9146,6.9195,6.9197,6.9192,6.9307,6.9326,6.9414,6.9268,6.927,6.9272,0,6.8912,6.8944,6.9026,6.9052,6.9068,6.9106,6.9141,6.9173,6.9198,6.9201,6.9224,6.9214,6.9262,6.9221,6.9288,6.9249,6.927,6.9277,6.928,6.9286,6.924,6.9317,6.9442,6.9456,6.929,6.9289,6.9288,0,6.8984,6.9046,6.9105,6.912,6.915,6.9178,6.9192,6.9214,6.9238,6.9268,6.9284,6.9319,6.9338,6.9366,6.9365,6.9335,6.9435,6.9393,6.9439,6.9439,6.9461,6.946,6.9593,6.9472,6.9472,6.9471,6.9471,0,6.9078,6.913,6.9138,6.9174,6.9232,6.9229,6.9287,6.9298,6.9319,6.9357,6.9342,6.9378,6.9375,6.9412,6.9411,6.9469,6.9477,6.9481,6.9481,6.9484,6.9484,6.9498,6.9492,6.9475,6.9474,6.9473,6.9473,0,6.9167,6.9174,6.9238,6.9263,6.9271,6.9313,6.9334,6.9369,6.9376,6.9424,6.9436,6.9445,6.9488,6.9491,6.9539,6.9539,6.961,6.9601,6.9602,6.9601,6.9649,6.9645,6.9797,6.9818,6.9681,6.9682,6.9683,0,6.9228,6.9269,6.93,6.9326,6.9342,6.9383,6.9408,6.9407,6.9434,6.9468,6.9499,6.9541,6.9574,6.9643,6.9654,6.9692,6.9686,6.9736,6.9691,6.9694,6.969,6.9688,6.9693,6.9746,6.9747,6.9748,6.9749,0,6.9337,6.934,6.9377,6.9417,6.9448,6.9479,6.9507,6.9529,6.9532,6.9563,6.9608,6.9634,6.9686,6.9728,6.9766,6.9779,6.9766,6.9764,6.9777,6.9781,6.9781,6.9784,6.9629,6.976,6.9759,6.9758,6.9758,6.9757,6.9415,6.9452,6.9481,6.9524,6.9547,6.9575,6.961,6.9622,6.966,6.9704,6.9701,6.9751,6.9778,6.9827,6.9844,6.9884,6.9867,6.9885,6.989,6.9895,6.9902,6.9774,6.989,6.989,6.989,6.9889,6.9889,0,6.9526,6.9544,6.9584,6.9627,6.9662,6.9648,6.968,6.9709,6.9755,6.9781,6.9816,6.9869,6.9911,6.9927,6.9968,6.9996,6.9991,7.0007,7.0006,7.001,6.9913,6.9899,7.0011,7.0011,7.0011,7.0011,7.0011,7.0011,6.9587,6.9649,6.9656,6.973,6.9747,6.9799,6.9818,6.9845,6.9867,6.9928,6.9963,6.9974,6.9997,7.004,7.0078,7.0082,7.0099,7.0118,7.0119,7.0029,7.0016,7.0005,6.9991,7.0121,7.0121,7.0213,7.0214,7.0215]}]]